Wind_Speed
28 27 26 25 24 23 23 23 22 20 20 19 20 20 19 18 17 16 17 17 18 19 21 22 23 25 27 28 29 30 32 33 34 37 37 39 40 41 43 43 43 44 44 45
29 28 28 28 27 26 25 24 23 23 22 21 23 23 22 21 20 20 19 19 20 21 23 24 25 26 28 29 31 32 32 34 35 36 38 40 41 42 43 43 44 45 46 46
32 30 30 30 28 27 27 26 25 25 24 25 26 26 25 24 23 23 23 24 24 24 25 26 26 28 29 31 32 32 33 35 36 37 39 41 42 42 43 44 45 46 46 47
34 33 33 31 30 29 29 28 28 27 26 27 28 28 27 27 27 27 27 27 28 28 29 29 29 30 31 33 34 35 36 37 37 39 40 41 42 43 44 45 47 47 48 49
35 35 35 32 31 30 30 30 30 30 30 30 30 30 30 30 30 30 30 30 30 30 31 31 32 33 33 34 35 37 38 39 39 41 42 43 44 45 46 47 48 49 50 51
37 37 36 34 32 32 32 32 31 32 32 32 32 33 32 32 33 33 33 33 33 33 34 34 34 35 36 36 37 38 39 40 41 42 44 45 46 47 48 49 49 50 51 51
38 38 36 35 34 33 34 33 32 33 33 34 34 34 34 34 35 35 35 35 36 36 36 36 37 37 38 38 39 40 41 41 42 44 45 46 47 48 48 49 50 50 51 51
39 40 38 36 35 35 35 35 35 35 35 35 35 35 35 36 37 37 38 38 38 38 38 38 38 39 39 40 40 41 42 43 43 44 45 46 47 47 48 49 50 50 50 51
40 40 38 38 37 36 36 36 36 37 37 37 37 37 37 38 38 38 39 39 39 39 39 39 40 40 41 41 41 41 42 42 43 44 45 46 47 48 48 48 49 50 50 50
41 40 39 39 38 37 37 38 38 38 38 38 38 38 38 38 38 38 39 39 39 40 40 40 40 40 41 41 41 42 42 43 44 44 45 46 47 47 47 47 48 48 49 49
42 41 41 41 40 39 39 39 39 39 39 39 39 39 39 39 39 40 40 40 40 41 41 41 41 41 42 42 42 42 43 43 44 44 45 46 46 46 46 46 47 48 48 49
41 41 42 42 41 41 41 41 41 41 41 41 41 41 41 41 41 41 41 41 41 42 42 43 43 42 42 43 43 43 43 43 44 44 45 45 45 46 47 47 47 47 48 49
42 42 42 42 42 42 42 42 42 42 42 42 42 42 42 42 42 42 42 43 43 43 43 43 44 44 44 44 44 44 44 44 44 44 44 44 46 47 47 47 47 47 48 48
42 42 42 42 42 42 42 43 43 43 43 43 43 43 43 43 43 43 43 43 44 44 44 44 44 45 45 45 45 45 45 45 45 45 45 45 46 46 46 46 46 46 46 47
42 41 41 41 41 42 42 43 43 43 44 44 44 44 44 44 43 43 44 44 44 45 45 45 45 46 46 46 46 46 46 46 46 46 46 46 46 46 46 46 45 46 46 46
41 41 41 42 42 42 42 43 43 44 44 44 44 44 44 44 44 44 44 45 45 45 46 46 46 46 45 45 45 45 45 45 45 45 45 45 45 45 45 44 45 45 45 45
41 41 41 41 41 42 43 43 43 44 44 44 44 44 44 44 45 45 45 46 46 46 46 46 46 45 45 45 44 44 44 44 44 44 44 44 44 44 44 43 43 43 43 43
41 41 41 41 41 41 42 42 42 42 42 42 43 43 44 44 45 45 45 45 45 46 46 46 45 44 44 44 44 43 43 43 43 43 43 42 42 42 42 42 42 42 42 42
39 39 39 40 40 40 40 40 40 40 41 41 42 42 41 42 42 43 44 44 44 44 43 44 44 44 43 43 43 42 42 42 42 42 42 42 42 41 41 41 41 40 40 40
36 36 36 37 37 38 38 39 39 39 40 40 40 40 40 40 41 41 42 42 42 42 42 42 42 42 42 41 41 41 41 41 40 40 40 40 40 39 39 39 39 39 39 38
34 35 35 36 37 38 38 39 39 39 39 39 39 39 39 40 40 40 41 40 40 41 41 41 41 40 40 40 39 39 39 39 38 38 38 38 38 38 38 37 37 37 37 37
33 34 35 36 37 37 38 38 39 39 39 39 39 39 38 38 38 39 39 39 39 39 39 39 38 38 38 38 37 37 37 37 37 37 37 37 36 36 35 34 34 34 34 34
31 32 32 33 34 35 36 37 37 38 38 39 39 39 39 38 38 38 38 38 38 37 37 37 36 36 36 36 36 36 35 35 35 34 34 34 34 33 33 32 32 31 31 31
31 31 31 32 33 34 35 36 36 37 38 38 38 38 38 37 37 38 38 37 37 37 36 35 34 34 34 34 34 33 33 32 32 32 32 32 31 31 30 30 30 29 29 29
30 30 31 32 33 33 34 34 35 36 36 35 35 36 36 36 35 35 35 35 35 35 34 33 33 32 32 32 31 31 31 31 30 30 29 29 28 28 27 27 26 26 26 26
30 30 31 31 32 32 33 33 33 33 33 33 33 34 34 34 33 33 33 34 34 33 32 32 31 31 30 30 30 30 30 29 28 27 27 27 26 26 25 24 24 23 23 24
29 29 30 30 30 31 31 31 30 30 30 31 31 32 32 32 32 31 31 31 30 29 29 29 29 29 29 29 29 28 27 27 26 25 25 24 24 23 22 22 22 22 22 22
Wind_Direction
278 278 278 278 278 278 278 280 281 283 285 288 290 292 293 294 293 292 290 285 280 276 272 269 265 263 261 261 263 264 264 265 263 260 261 261 261 262 263 264 264 265 267 268
273 274 276 276 274 274 275 277 279 281 281 283 283 286 288 289 290 288 286 283 279 277 275 273 271 267 265 263 263 265 265 266 265 262 262 263 264 264 265 265 266 267 268 269
270 271 273 272 274 274 274 274 277 278 280 280 280 282 284 284 284 284 283 282 281 280 278 277 274 272 269 268 266 266 266 267 265 264 265 265 266 266 265 266 267 268 269 271
269 270 271 275 273 273 273 273 274 276 278 279 279 279 281 281 281 281 281 281 281 281 279 278 277 275 274 273 270 268 268 268 268 269 267 266 266 266 267 267 269 270 271 271
268 270 272 273 273 274 275 275 274 275 276 277 277 277 278 279 279 280 281 282 282 281 279 278 277 277 277 276 274 271 270 271 271 271 270 269 268 268 269 269 269 270 271 272
266 269 272 274 274 275 275 275 275 276 277 278 278 277 278 279 279 280 281 281 281 281 280 279 278 278 278 277 276 274 274 274 273 272 271 270 269 269 269 269 270 271 271 271
265 267 270 273 274 274 274 275 276 277 277 278 278 278 278 278 279 279 280 280 281 281 281 280 279 279 278 277 277 276 275 275 274 274 272 271 271 271 271 270 271 272 272 272
264 265 268 271 273 273 274 275 276 277 278 278 278 279 279 279 279 279 280 281 281 281 281 280 280 280 280 279 279 278 277 277 276 275 274 273 273 273 273 273 272 272 272 273
264 265 267 269 270 271 273 274 275 276 277 277 278 278 279 280 280 281 281 281 281 281 281 281 281 281 280 279 279 279 279 278 278 277 277 275 274 274 275 274 274 273 273 274
263 264 265 267 269 271 272 273 274 275 276 278 278 278 278 279 280 280 280 280 280 280 280 281 281 281 280 279 278 278 278 278 278 278 277 277 276 276 276 276 276 276 275 275
264 264 265 266 268 269 270 272 273 275 277 278 279 278 278 278 278 278 278 279 279 280 280 281 281 281 281 280 279 279 279 279 279 279 278 278 278 278 277 277 277 277 277 276
265 265 265 266 267 268 269 271 273 275 277 278 278 278 278 278 279 279 279 279 280 281 281 281 281 281 281 280 280 280 280 280 280 280 279 278 278 277 277 278 278 277 277 277
264 265 265 266 267 268 270 272 274 275 276 278 278 278 278 279 280 280 280 281 282 282 282 282 282 281 280 280 281 281 281 281 281 281 280 279 279 278 278 277 277 277 278 278
263 264 265 266 267 269 270 272 274 274 275 276 276 277 277 278 279 279 281 281 282 283 283 283 283 282 282 281 281 281 281 281 281 281 280 280 280 280 279 278 277 277 278 279
264 265 266 267 268 270 270 272 273 273 273 274 275 275 276 277 278 279 280 281 282 282 283 283 283 283 282 282 282 281 281 281 281 281 280 280 281 280 280 278 277 277 278 278
265 267 268 269 269 270 270 271 272 272 273 274 275 276 277 277 278 279 280 281 282 282 283 283 283 283 283 282 281 281 281 281 280 280 280 280 280 280 280 279 278 278 278 278
267 268 268 270 271 271 272 272 273 274 274 275 275 276 277 277 278 279 280 280 281 282 283 283 283 282 282 282 281 281 280 280 280 280 280 280 280 280 279 279 279 279 279 279
269 269 269 271 272 272 273 273 274 274 274 274 275 276 276 277 278 279 280 281 282 283 283 282 282 281 282 282 282 281 281 280 279 279 279 279 279 279 279 279 279 279 279 279
269 270 271 272 272 272 273 273 274 274 275 276 277 277 278 279 280 281 281 282 283 283 282 281 281 282 282 282 282 282 281 280 280 279 279 279 280 279 279 279 278 277 278 278
272 272 272 273 272 272 273 274 275 275 276 277 278 279 279 280 281 281 282 282 283 283 282 282 282 282 282 282 281 282 282 282 281 280 279 278 278 278 278 278 277 278 278 278
273 272 272 273 273 273 275 275 276 277 278 279 280 280 280 280 281 281 282 282 283 283 283 283 283 283 282 282 281 282 282 282 281 280 279 279 279 279 279 278 277 277 277 277
275 275 275 274 274 275 276 277 277 277 278 279 280 280 280 280 281 281 283 284 284 284 284 283 283 282 282 282 282 283 283 282 281 281 280 279 279 279 278 278 277 276 276 276
277 277 278 278 278 279 278 278 278 278 279 280 280 280 280 281 281 282 283 284 284 284 284 283 282 282 282 282 283 283 284 283 282 281 280 279 279 278 277 276 276 276 276 276
279 279 279 280 280 280 280 280 280 280 280 280 280 280 280 281 281 282 283 283 284 283 283 283 282 282 282 283 283 283 283 283 282 281 281 280 279 278 277 276 276 276 276 276
280 280 280 281 282 282 281 281 281 281 281 281 281 281 282 282 281 281 282 283 284 283 282 282 281 281 282 282 282 282 283 282 282 282 281 279 279 278 277 277 277 276 276 276
282 283 284 284 284 284 284 284 284 283 282 281 281 282 282 283 283 283 283 284 284 283 282 281 281 281 280 280 280 281 282 281 281 282 281 280 279 278 276 275 276 276 276 276
284 286 287 287 287 287 286 286 285 284 284 283 283 283 284 284 283 283 284 285 284 283 283 283 283 282 281 280 280 280 279 279 280 281 280 279 278 277 275 274 275 276 277 275
Height
5674 5673 5673 5673 5672 5671 5670 5669 5669 5668 5667 5666 5664 5662 5661 5659 5658 5657 5655 5655 5654 5653 5653 5653 5653 5653 5653 5654 5654 5654 5655 5656 5656 5657 5658 5659 5659 5660 5661 5661 5661 5661 5661 5661
5666 5665 5665 5664 5664 5663 5663 5662 5661 5661 5661 5659 5657 5656 5655 5653 5652 5651 5650 5649 5648 5647 5646 5646 5645 5645 5645 5645 5646 5646 5646 5646 5647 5647 5647 5648 5648 5648 5649 5649 5649 5649 5648 5648
5656 5657 5655 5655 5657 5656 5655 5655 5654 5653 5654 5651 5650 5649 5648 5647 5646 5644 5643 5642 5641 5640 5639 5638 5637 5636 5636 5636 5636 5636 5636 5636 5636 5636 5636 5636 5636 5636 5636 5636 5636 5636 5635 5634
5645 5647 5646 5650 5648 5647 5646 5646 5645 5644 5644 5643 5642 5641 5640 5639 5638 5637 5636 5634 5633 5632 5631 5630 5629 5627 5627 5626 5626 5625 5625 5625 5625 5624 5624 5624 5624 5624 5623 5623 5623 5622 5621 5621
5635 5635 5635 5638 5638 5637 5637 5637 5636 5635 5635 5634 5633 5632 5631 5630 5629 5628 5627 5626 5624 5623 5622 5620 5619 5618 5617 5616 5615 5614 5614 5613 5612 5612 5612 5611 5611 5611 5610 5609 5609 5608 5607 5606
5625 5624 5625 5628 5628 5627 5627 5627 5627 5625 5625 5624 5623 5623 5623 5621 5620 5618 5617 5616 5615 5613 5612 5610 5609 5607 5606 5605 5604 5603 5602 5601 5600 5599 5598 5598 5597 5597 5596 5595 5595 5594 5593 5592
5614 5613 5615 5617 5616 5616 5617 5618 5616 5615 5614 5614 5613 5613 5612 5610 5609 5608 5607 5605 5604 5602 5601 5599 5597 5596 5595 5593 5592 5591 5589 5588 5587 5586 5584 5583 5583 5582 5581 5580 5580 5579 5578 5577
5603 5603 5606 5605 5605 5606 5606 5605 5604 5603 5603 5603 5602 5601 5600 5599 5598 5596 5595 5594 5592 5590 5589 5587 5585 5584 5582 5581 5579 5577 5576 5575 5573 5571 5570 5569 5568 5567 5566 5565 5564 5563 5563 5562
5592 5594 5594 5593 5593 5594 5594 5593 5593 5592 5592 5591 5591 5590 5589 5587 5586 5585 5583 5582 5580 5579 5577 5575 5573 5571 5569 5568 5566 5564 5563 5561 5559 5558 5556 5554 5553 5552 5551 5550 5549 5548 5547 5547
5578 5580 5581 5581 5581 5582 5582 5581 5581 5580 5580 5579 5578 5578 5577 5575 5574 5572 5571 5569 5567 5566 5564 5563 5561 5558 5556 5554 5553 5551 5549 5548 5546 5544 5542 5540 5539 5538 5537 5535 5534 5533 5532 5531
5565 5567 5568 5568 5569 5569 5569 5569 5569 5568 5568 5567 5566 5565 5564 5562 5561 5559 5558 5556 5554 5553 5551 5550 5548 5545 5543 5541 5539 5538 5536 5534 5532 5529 5527 5526 5524 5523 5522 5521 5519 5518 5517 5516
5553 5555 5555 5556 5556 5556 5557 5557 5556 5556 5555 5554 5553 5552 5551 5549 5548 5546 5545 5543 5541 5539 5538 5536 5534 5532 5530 5528 5526 5524 5522 5520 5518 5516 5514 5512 5511 5509 5508 5507 5505 5503 5502 5501
5540 5541 5542 5543 5543 5543 5543 5544 5543 5543 5542 5541 5540 5539 5538 5536 5535 5533 5531 5529 5528 5526 5524 5522 5520 5519 5516 5514 5512 5510 5508 5506 5504 5502 5500 5498 5496 5495 5494 5493 5491 5489 5488 5486
5527 5528 5529 5529 5530 5530 5530 5530 5530 5529 5528 5527 5526 5525 5524 5523 5522 5520 5518 5516 5515 5513 5511 5509 5507 5505 5502 5500 5498 5496 5494 5492 5490 5488 5486 5484 5482 5481 5479 5478 5477 5476 5474 5472
5514 5515 5516 5516 5517 5517 5517 5516 5516 5516 5515 5514 5513 5512 5510 5509 5508 5507 5505 5503 5501 5499 5497 5495 5493 5491 5488 5486 5484 5482 5480 5478 5476 5474 5472 5470 5468 5466 5465 5464 5462 5461 5460 5458
5501 5502 5502 5503 5503 5503 5503 5503 5502 5502 5501 5500 5499 5498 5497 5495 5494 5493 5491 5489 5487 5486 5483 5481 5479 5477 5474 5472 5469 5467 5465 5463 5461 5459 5457 5455 5453 5452 5450 5449 5448 5447 5445 5444
5489 5489 5490 5490 5490 5490 5490 5489 5489 5488 5487 5486 5485 5484 5483 5482 5480 5479 5477 5475 5473 5471 5469 5467 5464 5462 5459 5457 5455 5453 5451 5449 5447 5445 5443 5441 5439 5438 5436 5435 5434 5432 5431 5429
5476 5477 5477 5477 5477 5477 5477 5476 5475 5474 5473 5473 5472 5470 5469 5467 5466 5464 5463 5461 5459 5457 5454 5452 5450 5447 5445 5443 5441 5439 5437 5435 5433 5431 5430 5428 5426 5424 5423 5421 5420 5419 5417 5416
5464 5465 5465 5465 5464 5464 5464 5463 5462 5461 5460 5459 5458 5457 5455 5453 5451 5450 5448 5446 5444 5442 5440 5437 5435 5433 5431 5429 5427 5425 5423 5421 5419 5418 5416 5414 5413 5411 5409 5408 5407 5405 5404 5403
5453 5453 5453 5452 5452 5451 5451 5450 5449 5448 5447 5446 5444 5443 5442 5440 5438 5436 5434 5432 5430 5428 5426 5423 5421 5419 5417 5415 5413 5411 5410 5408 5406 5404 5402 5401 5399 5398 5396 5395 5394 5393 5391 5390
5442 5441 5441 5441 5440 5439 5438 5437 5437 5436 5434 5433 5431 5430 5428 5427 5425 5423 5421 5420 5417 5414 5412 5410 5408 5406 5404 5402 5400 5398 5397 5395 5393 5391 5389 5388 5386 5385 5384 5382 5381 5380 5379 5378
5431 5430 5429 5429 5428 5427 5426 5425 5424 5423 5421 5420 5418 5417 5415 5414 5412 5410 5408 5406 5404 5402 5400 5397 5395 5393 5391 5389 5387 5386 5384 5382 5380 5379 5377 5375 5374 5373 5372 5370 5370 5369 5367 5367
5420 5419 5418 5417 5416 5415 5414 5412 5411 5410 5408 5407 5405 5404 5402 5401 5399 5398 5396 5394 5391 5389 5387 5385 5383 5381 5379 5377 5375 5373 5372 5370 5368 5366 5365 5363 5362 5361 5360 5359 5358 5358 5357 5356
5410 5409 5408 5406 5405 5404 5402 5400 5399 5397 5396 5394 5392 5391 5389 5388 5386 5384 5383 5381 5379 5377 5375 5373 5371 5369 5367 5365 5363 5362 5360 5358 5357 5355 5354 5352 5351 5350 5349 5349 5348 5347 5347 5346
5400 5399 5397 5396 5394 5392 5391 5389 5387 5385 5383 5382 5380 5378 5377 5375 5374 5372 5370 5368 5367 5365 5363 5361 5359 5357 5356 5354 5352 5351 5349 5348 5346 5344 5343 5342 5341 5340 5339 5339 5338 5338 5337 5337
5390 5389 5387 5385 5383 5381 5379 5377 5375 5374 5372 5370 5369 5367 5365 5363 5361 5360 5358 5356 5354 5353 5351 5350 5348 5346 5345 5343 5342 5340 5339 5337 5336 5334 5333 5332 5331 5330 5330 5330 5329 5329 5328 5328
5380 5379 5377 5375 5373 5371 5369 5366 5365 5363 5361 5359 5358 5356 5354 5352 5350 5348 5347 5345 5343 5342 5340 5339 5337 5336 5334 5333 5332 5330 5329 5327 5326 5325 5324 5323 5322 5322 5322 5322 5321 5321 5320 5320